Regional Weather Roundup
Issued by NWS

Home | Current Version | Previous Version | Graphics & Text | Print | Product List | Glossary On
Versions: 1 2 3 4 5 6 7 8 9 10 11 12 13 14 15 16 17 18 19 20 21 22 23 24 25 26 27 28 29 30 31 32 33 34 35 36 37 38 39 40 41 42 43 44 45 46 47 48 49 50
000
ASUS43 KBIS 120902
RWRND

NORTH DAKOTA REGIONAL WEATHER ROUNDUP
NATIONAL WEATHER SERVICE BISMARCK ND
300 AM CST FRI FEB 12 2016

NOTE: "FAIR" INDICATES FEW OR NO CLOUDS BELOW 12,000 FEET WITH NO
SIGNIFICANT WEATHER AND/OR OBSTRUCTIONS TO VISIBILITY.


NDZ001>003-009>011-017-121000-
NORTHWEST NORTH DAKOTA

CITY           SKY/WX    TMP DP  RH WIND       PRES   REMARKS
WILLISTON      CLOUDY    16  11  80 N14       30.41R WCI   2
MINOT          CLOUDY     6  -2  69 NW12      30.42R WCI  -9
MINOT AFB      CLOUDY     3  -3  78 NW5       30.42R WCI  -7
$$

NDZ018>021-031>035-040>046-121000-
SOUTHWEST NORTH DAKOTA

CITY           SKY/WX    TMP DP  RH WIND       PRES   REMARKS
BISMARCK       FLURRIES  20  14  77 N5        30.37R WCI  13
DICKINSON      CLOUDY    18  13  80 N8        30.30R WCI   8
GARRISON         N/A     11   6  81 N12       30.38R WCI  -3
HETTINGER ARPT CLOUDY    22  19  89 N7        30.31R WCI  13
$$

NDZ004>008-012>016-024-026-027-054-121000-
NORTHEAST NORTH DAKOTA

CITY           SKY/WX    TMP DP  RH WIND       PRES   REMARKS
GRAND FORKS    CLEAR      4  -6  63 N18       30.40R WCI -16
GRND FRKS AFB  CLEAR      3  -7  63 N16G23    30.39R WCI -16
DEVILS LAKE    CLOUDY    -5  -8  87 N12       30.40R WCI -23
$$

NDZ022-023-025-028>030-036>039-047>053-121000-
SOUTHEAST NORTH DAKOTA

CITY           SKY/WX    TMP DP  RH WIND       PRES   REMARKS
FARGO          CLEAR      6  -2  69 N14       30.37R WCI -11
JAMESTOWN      CLOUDY    11   4  73 N17G23    30.35R WCI  -6
$$




USA.gov is the U.S. government's official web portal to all federal, state and local government web resources and services.